This demonstration page uses our WeatherBlox Daily Observations layout. Learn more.

Left ArrowRight Arrow

Hourly Observations for May 15, 2019

Temp ( °F °C ) Dew Point ( °F °C ) Humidity (%) Winds ( mph kmh ) Pressure ( in mb ) Visibility ( mi km ) Precip ( " mm )
12:15 am 00:15 Clear 50 10 48 9 94 94 N N/A 30.04 1017 10 16 N/A
12:37 am 00:37 Clear 46 8 46 8 100 100 N N/A 30.05 1018 10 16 N/A
12:55 am 00:55 Clear 48 9 46 8 94 94 N N/A 30.03 1017 10 16 N/A
1:16 am 01:16 Clear 46 8 46 8 100 100 N N/A 30.04 1017 10 16 N/A
1:35 am 01:35 Clear 46 8 46 8 100 100 N N/A 30.04 1017 10 16 N/A
1:55 am 01:55 Clear 46 8 46 8 100 100 N N/A 30.04 1017 10 16 N/A
2:15 am 02:15 Clear 46 8 46 8 100 100 SSW 3 6 30.04 1017 10 16 N/A
2:35 am 02:35 Clear 46 8 46 8 100 100 N N/A 30.03 1017 10 16 N/A
2:55 am 02:55 Clear 45 7 45 7 100 100 N N/A 30.03 1017 10 16 N/A
3:15 am 03:15 Clear 46 8 46 8 100 100 N N/A 30.02 1016 10 16 N/A
3:36 am 03:36 Partly Cloudy 46 8 46 8 100 100 N N/A 30.02 1016 10 16 N/A
3:55 am 03:55 Partly Cloudy 45 7 45 7 100 100 N N/A 30.02 1017 10 16 N/A
4:15 am 04:15 Partly Cloudy 45 7 45 7 100 100 N N/A 30.01 1016 10 16 N/A
4:35 am 04:35 Mostly Cloudy 45 7 45 7 100 100 N N/A 30.01 1016 10 16 N/A
4:55 am 04:55 Mostly Cloudy 46 8 46 8 100 100 N N/A 30.01 1016 10 16 N/A
5:15 am 05:15 Partly Cloudy 45 7 45 7 100 100 N N/A 30.02 1017 10 16 N/A
5:35 am 05:35 Mostly Cloudy 45 7 45 7 100 100 SSE 3 6 30.01 1016 10 16 N/A
5:55 am 05:55 Partly Cloudy 45 7 45 7 100 100 N N/A 30.01 1016 10 16 N/A
6:16 am 06:16 Mostly Cloudy 45 7 45 7 100 100 N N/A 30.01 1016 10 16 N/A
6:35 am 06:35 Partly Cloudy 45 7 45 7 100 100 SSE 3 6 30.01 1016 10 16 N/A
6:55 am 06:55 Partly Cloudy 45 7 45 7 100 100 N N/A 30.01 1016 10 16 N/A
7:15 am 07:15 Partly Cloudy 45 7 45 7 100 100 N N/A 30.02 1017 10 16 N/A
7:35 am 07:35 Mostly Cloudy 48 9 48 9 100 100 N N/A 30.02 1017 10 16 N/A
7:56 am 07:56 Mostly Cloudy 52 11 50 10 94 94 N N/A 30.02 1016 10 16 N/A
8:15 am 08:15 Partly Cloudy 54 12 50 10 88 88 N N/A 30.01 1016 10 16 N/A
8:36 am 08:36 Mostly Cloudy 54 12 52 11 94 94 N N/A 30.01 1016 10 16 N/A
8:55 am 08:55 Mostly Cloudy 55 13 52 11 88 88 N N/A 30.02 1017 10 16 N/A
9:15 am 09:15 Mostly Cloudy 57 14 52 11 82 82 SSW 3 6 30.02 1017 10 16 N/A
9:35 am 09:35 Cloudy 59 15 52 11 77 77 S 3 6 30.01 1016 10 16 N/A
9:55 am 09:55 Mostly Cloudy 61 16 52 11 72 72 SSW 3 6 30.02 1017 10 16 N/A
10:15 am 10:15 Partly Cloudy 63 17 54 12 73 73 WSW 5 7 30.01 1016 10 16 N/A
10:35 am 10:35 Mostly Cloudy 64 18 52 11 64 64 SW 6 9 30.00 1016 10 16 N/A
10:55 am 10:55 Partly Cloudy 66 19 54 12 64 64 SSW 6 9 30.00 1016 10 16 N/A
11:15 am 11:15 Sunny 66 19 54 12 64 64 WSW 6 9 30.00 1016 10 16 N/A
11:35 am 11:35 Partly Cloudy 68 20 54 12 60 60 WSW 7 11 30.00 1016 10 16 N/A
11:56 am 11:56 Partly Cloudy 68 20 52 11 56 56 WSW 9 15 30.00 1016 10 16 N/A
12:15 pm 12:15 Mostly Cloudy 68 20 52 11 56 56 SSW 10 17 30.00 1016 10 16 N/A
12:35 pm 12:35 Partly Cloudy 68 20 52 11 56 56 WSW 10 17 30.00 1016 10 16 N/A
12:55 pm 12:55 Mostly Cloudy 68 20 52 11 56 56 S 6 9 30.00 1016 10 16 N/A
1:15 pm 13:15 Mostly Cloudy 68 20 52 11 56 56 SW 8 13 29.99 1016 10 16 N/A
1:35 pm 13:35 Mostly Cloudy 68 20 52 11 56 56 SW 5 7 29.99 1016 10 16 N/A
1:55 pm 13:55 Mostly Cloudy 70 21 54 12 57 57 WSW 7 11 29.98 1015 10 16 N/A
2:15 pm 14:15 Partly Cloudy 68 20 54 12 60 60 undefined N/A 29.98 1015 10 16 N/A
2:35 pm 14:35 Mostly Cloudy 70 21 54 12 57 57 SSW 7 11 29.98 1015 10 16 N/A
2:55 pm 14:55 Mostly Cloudy 72 22 54 12 53 53 WSW 10 17 29.97 1015 10 16 N/A
3:15 pm 15:15 Mostly Cloudy 70 21 55 13 60 60 SW 7 11 29.97 1015 10 16 N/A
3:35 pm 15:35 Cloudy 68 20 54 12 60 60 N N/A 29.97 1015 10 16 N/A
3:55 pm 15:55 Cloudy 70 21 54 12 57 57 N N/A 29.97 1015 10 16 N/A
4:15 pm 16:15 Cloudy 70 21 54 12 57 57 S 3 6 29.96 1014 10 16 N/A
4:35 pm 16:35 Cloudy 70 21 55 13 60 60 SSW 5 7 29.95 1014 10 16 N/A
4:55 pm 16:55 Mostly Cloudy 70 21 55 13 60 60 SW 9 15 29.95 1014 10 16 N/A
5:15 pm 17:15 Mostly Cloudy 68 20 55 13 64 64 SW 5 7 29.95 1014 10 16 N/A
5:35 pm 17:35 Cloudy 68 20 55 13 64 64 SW 8 13 29.96 1014 10 16 N/A
5:55 pm 17:55 Cloudy 68 20 55 13 64 64 SSW 6 9 29.95 1014 10 16 N/A
6:15 pm 18:15 Cloudy 68 20 55 13 64 64 SSW 7 11 29.95 1014 10 16 N/A
6:35 pm 18:35 Mostly Cloudy 68 20 55 13 64 64 SW 7 11 29.95 1014 10 16 N/A
6:55 pm 18:55 Partly Cloudy 68 20 55 13 64 64 SW 8 13 29.95 1014 10 16 N/A
7:15 pm 19:15 Sunny 70 21 57 14 64 64 SW 7 11 29.94 1014 10 16 N/A
7:35 pm 19:35 Partly Cloudy 70 21 57 14 64 64 SW 7 11 29.94 1014 10 16 N/A
7:55 pm 19:55 Partly Cloudy 68 20 57 14 69 69 SSW 8 13 29.94 1014 10 16 N/A
8:15 pm 20:15 Mostly Cloudy 68 20 57 14 69 69 SW 5 7 29.94 1014 10 16 N/A
8:35 pm 20:35 Cloudy 66 19 57 14 73 73 SW 6 9 29.94 1014 10 16 N/A
8:55 pm 20:55 Mostly Cloudy 64 18 55 13 73 73 SSW 6 9 29.95 1014 10 16 N/A
9:15 pm 21:15 Partly Cloudy 63 17 57 14 83 83 SSW 3 6 29.97 1015 10 16 N/A
9:36 pm 21:36 Partly Cloudy 63 17 55 13 77 77 SSW 5 7 29.97 1015 10 16 N/A
9:55 pm 21:55 Partly Cloudy 63 17 55 13 77 77 SSW 5 7 29.97 1015 10 16 N/A
10:15 pm 22:15 Clear 61 16 55 13 83 83 S 5 7 29.98 1015 10 16 N/A
10:35 pm 22:35 Clear 61 16 55 13 83 83 S 5 7 29.98 1015 10 16 N/A
10:55 pm 22:55 Clear 59 15 55 13 88 88 S 5 7 29.98 1015 10 16 N/A
11:15 pm 23:15 Clear 59 15 55 13 88 88 S 5 7 29.98 1015 10 16 N/A
11:35 pm 23:35 Clear 59 15 55 13 88 88 S 6 9 29.98 1015 10 16 N/A
11:55 pm 23:55 Clear 57 14 55 13 94 94 S 6 9 29.99 1015 10 16 N/A

Powered by AerisWeather